Catalog is used mainly by search engines, humans should use search.

# Name Created Size
1 Dear.John.2010.DVDRip.KvCD-Robo29[tRg Release] 2021-07-19 848.5 MB
2 MILF Soup - Dana De Armond, Alannah Monroe [Mother And Step Daughter Combo!] 720p xXx.mp4 2021-07-19 585.1 MB
3 WWE.Monday.Night.Raw.2012.11.19.HDTV.x264-WYWTV 2021-07-19 1.7 GB
4 BustyEllen.E62.Ellen.Pov.Public.Toilet.XXX.720p.WMV-KTR 2021-07-19 386.8 MB
5 Star Trek BUGS DVD 2021-07-19 3.0 GB
6 Trend_Micro_Internet_Security_2008_16.10_Build_1106.rar 2021-07-19 87.6 MB
7 Angel_Video_Converter 2021-07-19 73.5 MB
8 F_T_EP121_Al3asq_720p.mp4 2021-07-19 282.9 MB
9 Midget_Loco-Death_of_Studio_Gangsters-2010-TQM 2021-07-19 80.6 MB
10 ( 01 Jazz ) INDEX of mp3 = www.mp3-free-gratis.blogspot.com 2021-07-19 26.8 MB
11 Ghostbusters_The_Video_Game_PAL_Wii-WiiERD 2021-07-19 4.6 GB
12 RWM 6.7.rar 2021-07-19 796.9 MB
13 The.Surreal.Life.S06E02.XviD-TvD.avi 2021-07-19 183.2 MB
14 Holby.City.S10E36.WS.PDTV.XviD-RiVER 2021-07-19 750.5 MB
15 [HST] UFO Hunters - Area 51 Revealed 2021-07-19 381.4 MB
16 80sMexicovh1TVRIP 2021-07-19 1.2 GB
17 Der.Pate.III.German.DL.1990.PAL.HD2DVD.DVD9 2021-07-19 8.5 GB
18 Leni Riefenstahl - Der Weisse Rausch (1931).avi 2021-07-19 804.5 MB
19 Marmaduke.BDRip.XviD-RiPiD-[ www.torrentkit.com 2021-07-19 741.8 MB
20 Traitor(2008)DVDrip(AC3-5.1)- keltz 2021-07-19 938.9 MB
21 Boston-Legal-4x12-HDTV-NoTV-VTV 2021-07-19 364.3 MB
22 LUXE 2021-07-19 2.6 GB
23 VA - Folkloristic Tunes [2006][Folk][www bitmp3 com] 2021-07-19 108.5 MB
24 Patrick Miller & Kay One - Dancing in London (David May Mix) (Official Video HD).MP4 2021-07-19 68.0 MB
25 Steam-Patcher.rar 2021-07-19 968.6 KB
26 No.Limit.S01E03.2012.FRENCH.Luc.Besson.HDTV.x264.[KskS].mp4 2021-07-19 352.1 MB
27 Lost.S03.D06.HR.HDTV.AC3.5.1.TVRip.PROPER-apw1975 2021-07-19 4.6 GB
28 M80.Todos.Los.Exitos.De.Los.70.80.y.90.Vol.2(2006) 2021-07-19 259.7 MB
29 Flight.of.the.Conchords.S01E07.PDTV.XviD-NoTV 2021-07-19 260.8 MB
30 110.Percent.Natural.19.XviD-SWE6RUS 2021-07-19 1.5 GB
31 I.Love.Teen.Pussy_2CD.XXX_DVDRIP.XviD_(TerritorioCero.com) 2021-07-19 1.5 GB
32 Americas Army 2.5 Online Installtion Client MAC-OS.dmg 2021-07-19 3.7 MB
33 [ www.Speed.Cd ] - The.Bad.Girls.Club.S07E15.Reunion.Part.2.720p.HDTV.x264-PREMiER 2021-07-19 1.4 GB
34 BBW Depot - Yoko.wmv 2021-07-19 212.8 MB
35 Glory Hole-Geil gespritzt.avi 2021-07-19 62.4 MB
36 Bal Ganesh 2 [2009-MP3] - [DJLUV] 2021-07-19 153.2 MB
37 elan street child 2021-07-19 44.4 MB
38 3D Photo Builder Professional 2.2.exe 2021-07-19 319.5 KB
39 Ken.parK 2021-07-19 736.9 MB
40 Raccolta Sturmtruppen [Pack 2-5] 2021-07-19 46.4 MB
41 Jhevon Paris ft The First-Lean & Flos (DVD)(music-video-torrents.afz.biz)s.mpg 2021-07-19 62.7 MB
42 Knight.Rider.2008.S01E09.HDTV.XviD-2HD 2021-07-19 379.0 MB
43 The.Last.Word.DVDRip.XviD-ARiGOLD 2021-07-19 761.5 MB
44 Harold.And.Kumar.Go.To.White.Castle.2004.BRRip.XviD.AC3-FLAWL3SS 2021-07-19 1.5 GB
45 Paris Hilton - One Night in Paris.mpeg 2021-07-19 42.0 MB
46 KIS7.0.0.125_PL_ENG_NEW_KEYS.rar 2021-07-19 27.6 MB
47 N. Kuhn - Travis (Buffalo Rocker _1).epub 2021-07-19 295.6 KB
48 2009 WMA Motocross Rd 8 Steel City.avi 2021-07-19 734.1 MB
49 Care.Bears.Oopsy.Does.It.2007.DVDRip.XviD-aAF 2021-07-19 752.1 MB
50 Malicia - Conciencia (2008) [www.heavytorrents.org] 2021-07-19 147.6 MB
51 Ushi.En.The.Family.S01E08.NL.XViD-SHOWGEMiST 2021-07-19 243.5 MB
52 AVI Converter_.zip 2021-07-19 4.3 MB
53 AmA Drum n Bass Vol 4 2021-07-19 167.3 MB
54 Dr.Strangelove.1964.720p.BluRay.x264-SiNNERS 2021-07-19 4.7 GB
55 10 REFLEXIVE game-full-7 2021-07-19 182.3 MB
56 Valley.Of.The.Wolves.Iraq.[2006]DVDRip.XviD 2021-07-19 1.5 GB
57 handel oboe c.,english cha.ork harp c.i musici,parts of organ c.c. amsterdam 2021-07-19 231.3 MB
58 250963_3xplanet_1Pondo_061921_001.mp4 2021-06-30 1.9 GB
59 身材不错的小学妹性感纹身躺在床上让大哥采摘,先看看骚逼主动上位性感的翘臀,床上各种爆草抽插浪荡呻吟 2021-06-16 615.8 MB
60 The Ghost And The Whale (2017) [720p] [WEBRip] [YTS.MX] 2021-06-15 1.0 GB
61 [Eucleia][Nanamaru Sanbatsu][01-12v2][BIG5][720P] 2021-06-13 2.2 GB
62 [AniStar.org] Tokyo Revengers - 08 [720p].mkv 2021-06-07 443.9 MB
63 Big.Sky.2020.S01E04.Unfinished.Business.1080p.WEBMux.ITA.ENG.DD5.1.x264-BlackBit.mkv 2021-05-29 3.3 GB
64 [SubsPlease] Fumetsu no Anata e - 07 (720p) [66F64D38].mkv 2021-05-25 779.3 MB
65 [EX-TORRENTY.ORG] The.Etruscan.Smile.2018.MULTi.720p.BluRay.x264-KLiO 2021-05-21 7.2 GB
66 [BcamGirl.com][MyFriendsHotMom] Reagan Foxx, Brad Knight (15.05.2020) rq.mp4 2021-05-17 351.2 MB
67 TaffyTales0.8.1c 2021-05-14 513.5 MB
68 Nubiles.20.10.07.Sabrisse.Skinny.Dip.XXX.SD.MP4-KLEENEX 2021-05-10 80.6 MB
69 Hime Marie - Orgasmic Anal Slut (30.10.2020)_1080p.mp4 2021-05-06 3.8 GB
70 TTC Understanding Linguistics 2021-05-05 1.1 GB
71 3yo whore! 7años bambina Kidcam desi-young.jpg 2021-04-26 862.1 KB
72 Deadly.Class.S01E01.Reagan.Youth.1080p.AMZN.WEB-DL.DDP5.1.H.264-NTG.mkv 2021-04-23 1.4 GB
73 Bienvenido.Mister.Marshall.1953.720p.BluRay.DD5.1.x264-EA.mkv 2021-04-19 5.5 GB
74 The.Rachel.Maddow.Show.2021.04.12.540p.WEBDL-Anon[TGx] 2021-04-16 507.6 MB
75 [bbs.yzkof.com]MDYD-558.1080P[约战竞技场] 2021-04-13 5.2 GB
76 Не отступать и не сдаваться.1986.BDRip.1080p by msltel.mkv 2021-04-09 16.1 GB
77 [Erai-raws] Boruto - Naruto Next Generations - 184 [480p][Multiple Subtitle].mkv 2021-03-26 379.4 MB
78 Mysteries.of.the.Abandoned.S04E07.Alien.Hell.Portal.720p.WEBRip.x264-CAFFEiNE[eztv].mkv 2021-03-23 1.2 GB
79 Analyze This.1999.BDRip.1080p.VO.Chadov.mkv 2021-03-14 4.9 GB
80 The Abominable Dr. Phibes (1971) (1080p BluRay x265 HEVC 10bit AAC 2.0 Tigole) 2021-03-14 4.8 GB
81 SinfulXXX.21.01.05.Shalina.Devine.And.Veronica.Leal.XXX.720p.HEVC.x265.PRT 2021-03-13 236.6 MB
82 [JAV] [Uncensored] FC2 PPV 1643479 [1080p] 2021-03-13 1.8 GB
83 CJOD-276 2021-03-12 7.0 GB
84 Pusha T [Discography] [320 Kbps] 2021-03-11 817.7 MB
85 04eHj.pL0x1e.mam04ki.2o16.D.HDRip.1400Mb.avi 2021-02-27 1.5 GB
86 Jerkoff Material 6 DVDRip XviD [.avi] 2021-02-25 2.2 GB
87 Carib-020119-851-FHD 2021-02-24 2.0 GB
88 Excursion.2019.1080p.WEBRip.x265-RARBG 2021-01-12 1.4 GB
89 SK-PS.Kreatywna.Fotografia.Slubna-USER 2020-12-31 476.0 MB
90 [Nyoro~n Subs] Mobile Suit Gundam 00 - 19.mkv 2020-12-21 330.7 MB
91 Lionheart - The Reality Of Miracles (2020, Japan, KICP 4030) 2020-12-18 433.5 MB
92 RuPauls.Drag.Race.UK.S02E01.720p.HEVC.x265-MeGusta[eztv.re].mkv 2020-12-17 159.0 MB
93 Rage Against The Machine - Discography (FLAC) 2020-12-17 2.6 GB
94 Better.Call.Saul.S02E01.HDTV.x264-FLEET[rarbg] 2020-12-13 320.7 MB
95 全职高手.第二季.S02E06.2020.1080p.国语中字.WEBrip.H265.mp4 2020-11-04 407.1 MB
96 WoodmanCastingX.Stacy.Jay.Hard.My.first.DP.with.3.men 2020-10-13 258.6 MB
97 FSDSS099 2020-09-27 1.3 GB
98 16000000 2020-08-29 72.0 GB
99 Scrat.Gone.Nutty.BluRay.1080p.x264-McFly.mkv 2020-07-29 209.7 MB
100 [email protected]_免翻#墙免费访问全球最大情#色网站P#ornhub,可看收费内容.mp4 2020-07-21 6.7 GB
101 North.Woods.Law.S14E05.Case.Closed.720p.WEB.h264-ROBOTS[eztv.io].mkv 2020-06-10 994.8 MB
102 diaper baby ptsc-preteen-pthc childlover 06yo Toddler Girl PedoDad.avi 2020-06-09 55.7 MB
103 Hustler - Christie Stevens [720p HD].mp4 2020-05-28 712.1 MB
104 The.Call.of.the.Wild.2020.2160p.BluRay.x265.10bit.SDR.DTS-HD.MA.TrueHD.7.1.Atmos-SWTYBLZ 2020-05-27 27.6 GB
105 170326.일밤 1부 복면가왕 「계속되는 초박빙 승부! 가왕전 결과 1표차!」.H264.AAC.720p-CineBus.mp4 2020-04-29 1.9 GB
106 月刊少年マガジン 2020年06月号 [Gekkan Shonen Magazine 2020-06].rar 2020-04-26 1.3 GB
107 青囊传 2020-04-16 21.7 GB
108 [情欲小镇(荡妇)].The.Slut.2011.SUBBED.D9.10bit.MiniSD-TLF.mkv 2020-04-01 901.5 MB
109 Days Of Power (2018) [1080p] [YTS.AG] 2020-03-30 1.7 GB
110 Bagp0Vii.P1k.2015.D.WEB-DLRip-AVC.by.White Smoke.R.G.Resident.mkv 2020-03-23 1.6 GB
111 LegalPorno 7 Movies 2020-03-08 11.3 GB
112 ClassiCube v1.1.2 2020-03-03 16.8 MB
113 FoxxedUp - Cherie Deville (Sweet Lesbian Loving) 720p HEVC x265 2020-03-01 164.4 MB
114 Chicago.Fire.S08E04.720p.HDTV.x265-MiNX[TGx] 2019-10-17 306.8 MB
115 Active Listening A Practical Guide to Be an Active Listener 2019-06-09 656.7 MB
116 FollowMe.2019.HDRip.AC3.x264-CMRG[EtMovies] 2019-06-03 1.4 GB
117 50 Assorted Magazines - April 27 2019 2019-04-26 3.7 GB
118 Lucky Starr, Nicky Ferrari - Two Girls Rides It 2018-12-15 891.5 MB
119 Lucha.Underground.S04E21.720p.HEVC.x265-MeGusta 2018-11-19 735.6 MB
120 15 Things Highly Happy Wives and Girlfriends Understand About Me 2018-10-01 145.0 KB
121 Deadliest.Catch.S14E05.WEB.x264-TBS 2018-05-02 361.4 MB
122 Playboy USA - February 2009 2018-04-10 50.0 MB
123 Usatame - Virgin Goddess.zip 2017-12-28 20.0 MB
124 ARK.Survival.Evolved.Aberration.REPACK-KaOs 2017-12-22 17.1 GB
125 [EroticaX] Melissa Moore - Friends With Benefits (2017-11-01).mp4 2017-11-01 306.6 MB
126 Line.of.Duty.S04E06.1080p.HEVC.x265-MeGusta 2017-05-01 615.3 MB
127 BackroomCastingCouch.Amateur.Casting.Sabrina.XXX 2017-04-21 448.3 MB
128 Bang It Out 2017-03-07 440.8 MB
129 60 Most Amazing Collection of Computer Desktop Wallpapers - 3319 2017-02-03 39.4 MB
130 gangland.undercover.s02e01.nowhere.man.1080p.web.dl.hevc.x265.rmteam.mkv 2016-12-20 521.2 MB
131 Nazotokine.S01E04.480p.x264-mSD 2016-11-03 45.7 MB
132 30 Degrees In February S02 E04 - Hardcoded Eng Subs - Sno 2016-11-03 500.8 MB
133 Unreal.Estate.S01E02.480p.x264-mSD 2016-10-11 291.5 MB
134 I.Am.Potential.2016.HDRip.XviD.AC3-EVO 2016-08-26 1.5 GB
135 BlowBangGirls 15 10 29 Ava XXX 1080p MP4 2016-07-19 1.2 GB
136 btas_marsha_may__480p_1000.mp4 2016-07-08 306.1 MB
137 [CzechVR] LILITH LEE - Czech Virtual Reality Porn 180 Video (0 2016-05-06 689.8 MB
138 Amateur two babes interracial hardcore 2016-03-06 116.3 MB
139 Hate.in.America.S01E01.The.Klan.on.Trial.480p.x264-mSD 2016-03-01 180.9 MB
140 Scream queens - S01E03 - 576P - SweSub.mp4 2016-02-28 669.6 MB
141 Naughty America - 2016-02-08 - My Wife Is My Pornstar - Hope How 2016-02-09 665.3 MB
142 [PunishTeens] Nickey Huntsman (Cheating Slut Gets DP - 14.12.2015) [.mp4] 2015-12-16 850.9 MB
143 IKillitts - Bruna Butterfly (Brunas First Gangbang) 720p 2015-12-14 682.5 MB
144 Pinay nene na tinirada ang puwet 2015-12-05 126.1 MB
145 James McNeill Whistler (Art Ebook).pdf 2015-08-01 13.7 MB
146 Tom Holkenborg (Junkie XL) - Run All Night 2015 303Kbps 2015-06-20 327.7 MB
147 The.Block.AU.S10E50.PDTV.x264-FQM.mp4 2015-04-15 388.0 MB
148 The _Six Million_ Myth - ZionCrimeFactory.pdf 2015-03-25 13.6 MB
149 Giochi D'azzardo ITALIAN 2015-02-28 735.8 MB
150 EllaKross - First Time Cock and Ball Torture for a New Slave 2015-02-04 1.1 GB
151 OnlyTease.14.11.18.Stacey.P.Sarah.James.XXX.IMAGESET-FuGLi 2014-11-20 56.7 MB
152 Bataman Arkham Origins 2014-10-07 17.8 MB
153 Let.Me.Taste.That.Cum.2.XXX.WEBRIP.WMV-GUSH 2014-06-11 1.3 GB
154 Round.The.Back.DISC1.XXX.DVDRip.x264-VBT 2014-05-31 2.4 GB
155 IHaveAWife.14.05.20.Sara.Jay.XXX.1080p.MP4-KTR 2014-05-20 2.2 GB
156 Alceste a Bicyclette 2013 DVDR R4 NTSC ADES 2014-03-28 4.6 GB
157 ClubDom-----Make Her Cum Femdom Sex 720p 2014-03-19 222.4 MB
158 Scam.City.S02E07.Bogota.HDTV.XviD-AFG 2014-02-10 387.8 MB
159 Royal Pains [T05][HDiTunes][Ac3][DUAL][E04-13] 2014-01-15 572.0 MB
160 Perfect Blue (1997) 2013-11-17 1.1 GB
161 Mobin Master, Tate Strauss & Reecey Boi - Hah Hah (Burgs Rem 2013-10-04 12.5 MB
162 Quran Pak with urdu translation ( kanzul iman ).rar 2013-10-03 2.7 GB
163 MikeInBrazil.Angel.All.Heart.XxX.mp4 2013-08-04 2.5 GB
164 M.I.L.T.F_30_Kayla Wanda Cat_XXX_DVDRip_Split Scenes 2013-08-02 1.8 GB
165 Gay - MormonBoyz Library 2 2013-07-17 4.5 GB
166 RTE.Primetime.Investigations.Unit.Lariam.2013.PDTV.x264.AAC.MVGroup.org.mp4 2013-05-26 641.3 MB
167 Ass Parade - Jada Stevens And Remy Lacroix HD 720p 2013-04-07 928.1 MB
168 Eveline_A_Taste_Of_Desire_SD.mp4 2013-01-17 165.0 MB
169 The.Neighbors.S01E12.1080p.WEB-DL.DD5.1.H.264-HoodBag [PublicHD] 2013-01-17 897.2 MB
170 Ladies vs Ricky Bahl 2011 Hindi 720p [eng sub] 2012-09-24 1.1 GB
171 Inquisitor-SKIDROW 2012-09-06 2.0 GB
172 Anno.1404.Dawn.Of.Discovery-KaOs 2012-07-18 1.6 GB
173 All Internal 18 (DvdRip) 2012-04-07 1.5 GB
174 09 Manaqib 2012-04-06 27.6 MB
175 My.Big.Fat.Gypsy.Christmas.2011.HDTV.XviD-FTP 2011-12-27 374.4 MB
176 Top.Shot.S03E07.Tricked.Out.HDTV.XviD-MOMENTUM 2011-09-21 375.1 MB
177 Windows 7 ThemePack - Asia Beautiful Places 2 2011-08-13 10.6 MB
178 Shrooms.2007.DVDRIP.XVID.AC3.B-BRG.TheO 2011-08-08 1.7 GB
179 BBC Wonders of the Universe 1of4 HDTV x264 AC3 MVGroup 2011-03-28 1.9 GB
180 BigTitsAtSchool - Veronica Rayne 2010-10-10 429.1 MB
181 Chattambinadu.2010.DVDRip.Xvid.AC3-tSb.rar 2010-08-02 1.6 GB
182 Conan O Brien 2009 10 28 Chris O Donnell HDTV XViD-DGAS [eztv] 2009-10-29 366.7 MB
183 New.Town.Killers.2008.1080p.BD9.x264-IGUANA 2009-10-19 8.1 GB
184 house_m.d_s05e12 2009-08-28 362.6 MB
185 Nirvana-Nevermind (mp3) {tre123wor} 2009-05-06 57.0 MB
186 Gunsmoke-Lacey S07ep16.avi 2009-01-15 508.0 MB
187 Treble Charger 2008-12-30 182.7 MB
188 Death_sentence_NLT-Release(2007) 2008-07-03 777.7 MB
189 David Coverdale - Northwinds (fixed) 2007-10-21 38.1 MB
190 Microsoft Office 2007 Enterprise (Swedish).iso 2007-09-09 577.8 MB
191 Family Portraits 2007-07-10 3.2 GB
192 Mummitrollet i Oldtiden 2007-03-26 726.0 MB
193 VA_-_Spaced_Out-Compiled_By_Gataka-2007-PBRVA_-_Spaced_O 2007-02-21 144.0 MB
194 Adobe Muse CC 7.3 Build 5 (Mac OS X) Multilanguage n/a 14.4 MB
195 Microsoft Office 2016 Pro Plus March 2016 n/a 1.7 GB
196 3339SuzieFreeHugsFreeFuck n/a 351.5 MB
197 [Met-Art] 2013-11-22 Gracy Taylor - Taronja.XXX.720.BRRip XViD n/a 433.2 MB
198 (同人誌) [脱力研究会 (神林タカキ)] 誘惑してくる弟 [DL版].zip n/a 36.4 MB
199 Wheres The Cum s3.mp4 n/a 131.4 MB
200 WANZ277CMP4 n/a 1.4 GB
201 kin8-1631-FHD n/a 2.8 GB
202 ARTIST Sean Blackthorne (961641).zip n/a 51.6 MB
203 www.TamilRockers.la - Devi (2016)[720p HD - AVC - MP4 - 1.1GB - Tamil] n/a 1.3 GB
204 Deutsche Nachbarn 5 n/a 1.2 GB
205 EroticBeauty.com_16.09.04.Otte.Presenting.Otte.XXX.IMAGESET-GAGBALL[rarbg] n/a 74.0 MB
206 avop00238.zip n/a 4.0 GB
207 Lily McCoy - Your Reward n/a 1.8 GB
208 Fractal Geometry in Python 2016 n/a 805.3 MB
209 An.What.If.2012.720p.Bluray.H264.AC3.5.1-PTR.mkv n/a 1.6 GB
210 Hotspot Shield VPN Elite 7.20.6 Multilingual + Crack n/a 7.0 MB
211 MySistersHotFriend.17.07.12.Maya.Kendrick.XXX.1080p.MP4-KTR[rarbg] n/a 3.0 GB
212 Beauty and the Beast 2017 BluRay x264 HD-RARBG n/a 791.2 MB
213 [twistys.com] 2017-01 n/a 1.2 GB
214 Hide ALL IP 2016.09.15.160915 Incl Loader n/a 5.3 MB
215 BurnAware Professional v9.0 FINAL + Crack n/a 184.0 MB
216 Younger.S03E10.HDTV.Subtitulado.Esp.SC.avi n/a 216.8 MB
217 Best of The Week 3D Model Towels n/a 42.8 MB
218 Adobe Photoshop CC 2017 v.18.2.2 n/a 10.6 MB
219 Personal.Shopper.2O17.P.WEB-DLRip.14OOMB.avi n/a 1.5 GB
220 I Am Rebel S01E02 HDTV x264 [StB] n/a 472.5 MB
221 DDFBusty.17.09.10.Bridgette.B.XXX.1080p.MP4-KTR n/a 1.6 GB
222 [Thz.la]072517-467-carib-720p n/a 363.5 MB
223 3atmeHye.2016.O.BDRip.1080p.mkv n/a 8.1 GB
224 IndustryInvaders 16 02 19 Brandy Wine XXX AdultRG n/a 418.5 MB
225 StepSiblingsCaught.16.11.18.Karlie.Brooks.Curious.Stepdaughter.XXX.SD.MP4-RARBG n/a 226.3 MB
226 Ryan Riesling - Hot Chick Plays with a Butt Plug.mp4 n/a 347.3 MB
227 Titty Creampies 7 (Evil Angel) WEB-DL 2014 (Split Scenes) n/a 1.9 GB
228 How.I.Met.Your.Mother.S08E14.720p.HDTV.X264-DIMENSION.sub.ita.mkv n/a 812.2 MB
229 If.Loving.You.Is.Wrong.S05E07.HDTV.x264-CRiMSON[rarbg] n/a 253.9 MB
230 GraphicConverter 10.9.6_MAC n/a 18.6 MB
231 BetterTouchTool 1.75 [MAC] n/a 10.6 MB
232 World of Warcraft - Legiondep n/a 38.6 GB
233 ue_csgo.exe n/a 2.2 MB
234 Sex and Onmyoji (2012) n/a 1.1 GB
235 犯罪大师.2016.BD1280高清中英双字-www.iidvd.com.mp4 n/a 937.1 MB
236 Registry First Aid Platinum 10.0.0.2277 + Crack + [MAC] n/a 134.2 MB
237 The Great Deception The Secret History of the European Union - Christopher Booker.pdf n/a 55.4 MB
238 Уральские пельмени. Хочу всё ржать! (2016.04.22)_SATRip n/a 3.0 GB
239 Pixelmator 4.2 Multilingual MacOSX Retail-CORE n/a 10.6 MB
240 IENE-524.mp4 n/a 1.0 GB
241 Berlin Station S01E05 - Unter Druck [1080p.WEBRip.H.264.AC3] [Lektor PL].mkv n/a 2.0 GB
242 Gotham S03E16 2016 720p BrRip x264 - BLOW n/a 329.5 MB
243 milfthing.17.05.21.nikky.thorn[tk][480p][rarbg].mp4 n/a 432.6 MB
244 KRI038 n/a 1.4 GB
245 IGG-Jet.Set.Knights.zip n/a 83.9 MB
246 MPLStudios.com_15.06.07.Inga.In.The.Beginning.XXX.IMAGESET-GAGBALL[rarbg] n/a 143.3 MB
247 Timeless.S01.400p.SunshineStudio n/a 2.4 GB
248 21 Sextury - Aletta Ocean_Backstage8.mp4 n/a 397.8 MB
249 Runtime GetDataBack Simple 3.10 + Portable FULL n/a 14.5 MB
250 The.X-Files.S10E05.720p.HDTV.x264-SVA n/a 1.4 GB
251 Hunting.Hitler.S01E03.iNTERNAL.HDTV.x264-TURBO n/a 460.2 MB
252 American.Housewife.S01E15.HDTV.x264-SVA[PRiME] n/a 179.6 MB
253 窦娥奇冤-国语1080P.Snow in Midsummer.2017.WEB-DL.X264.AAC-SEEHD n/a 1.3 GB
254 Sex Match v1.0c - Cherry Cherry Peach n/a 9.2 MB
255 Parallels Desktop 10.01.11-28714 n/a 16.8 MB
256 Bitwig Studio v1.3.9 OS X.Linux.Windows n/a 13.0 MB
257 Пустовалов С.Ж, Соціальний лад катакомбного суспільства Північного Причорномор'я 2005.pdf n/a 86.2 MB
258 TheWalking...Dee.a.d02-.13.7xdx20x.,,.H.V..,x2c64cc-I..cc.xcsd.mx.cxvccksm.vg...c..torrent n/a 420 B
259 Any Video Converter Ultimate 6.0.5 Incl Serial Keys n/a 60.2 MB
260 SexArt.17.05.28.Daisy.Lee.One.Day.In.Hotylek.Part.1.XXX.XviD-iPT Team[tk].avi n/a 217.9 MB
261 Sonic Academy - KICK 2 v1.0.4 macOS n/a 12.3 MB
262 170821.생활의 달인 「비빔국수/숙성 꿀/교토 카레/숨어 있는 맛」.H264.AAC.720p-CineBus.mp4 n/a 969.5 MB
263 idea n/a 1.7 GB
264 Carly Simon - Hotcakes (1974) [SACD] (2016 MFSL Remaster PCM Stereo) n/a 781.7 MB
265 HDD Regenerator 2016 Incl Crack n/a 10.4 MB
266 christen_rina_ap061716_pics n/a 135.3 MB
267 Native Instruments - Maschine 2 v2.0.6 UNLOCKED - OS X - R2R n/a 20.8 MB
268 Compressor 4.2 n/a 10.6 MB
269 49.tbl050 n/a 1.2 GB
270 Download Kickass Torrent of Kickass Movies - kickass.re.url n/a 48 B
271 The.Gallows.2015.720p.BRRip.XviD.AC3-LEGiON n/a 705.6 MB
272 RanchRush2Rus_5713.exe n/a 64.1 MB
273 Freaky Midgets 2.avi n/a 1.1 GB
274 [email protected]@heyzo-0457 n/a 723.3 MB
275 The.Crow.1994.720p.BluRay.x264-x0r n/a 2.3 GB
276 [Ohys-Raws] Aikatsu Stars! - 58 (TX 1280x720 x264 AAC).mp4 n/a 358.7 MB
277 Carib-082316-239-FHD n/a 1.9 GB
278 www.TamilMv.Org - Kodi (2016) Tamil HDRip - 720p - x264 - 5.1 - 1.3GB - ESub [HT].mkv n/a 1.3 GB
279 Shameless.US.S06E10.HDTV.x264-LOL.mp4 n/a 389.9 MB
280 Последний москаль. Судный день (2016) n/a 734.7 MB
281 Syberia.3-CODEX n/a 364.0 MB
282 (Felsala) Broken X - Chapters 3-4 [English] [Ongoing].zip n/a 11.8 MB
283 (C91) [Kotonosha (Mutsumi Masato)] TAKAO OF BLUE STEEL 06 (Aoki Hagane no Arpeggio) n/a 9.7 MB
284 S.W.A.T.S01.WEBRip.1080p n/a 14.8 GB
285 Cossacks.3.Summer.Fair-SKIDROW n/a 144.6 MB
286 Dead.Awake.2016.WEB-DL.XviD.MP3-FGT n/a 1.3 GB
287 kin8tengoku-0123-HDfull.wmv n/a 2.0 GB
288 파이어 엠블렘 n/a 493.4 MB
289 Drunk.Sex.Orgy.Megabums.Auf.Alcatraz.2010.XXX.DVDRip.XviD-CiCXXX n/a 1.5 GB
290 [ www.CpasBien.cm ] American.Horror.Story.S05E02.FRENCH.HDTV.XviD-ZT.avi n/a 569.2 MB
291 (C70) [Matsumoto Drill Kenkyuujo (Naganoon)] Tamani wa nai no mo ii janai (Utawarerumono) [Thai ภาษาไทย].zip n/a 29.9 MB
292 Kamila - Massage Cutie Fucked TM 1080.mp4 n/a 2.5 GB
293 Our Last Time by Cristy Marie Poplin n/a 253.3 KB
294 HotLegsAndFeet.com_15.10.25.Cara.Brett.Spick.And.Span.Blonde.Makes.Her.Pussy.Gape.With.High.Heels.XXX.IMAGESET-FuGLi[rarbg] n/a 30.8 MB
295 The.Killing.1x04.HDTV.XviD.[www.DivxTotaL.com].avi n/a 366.5 MB
296 Holidays (microHD) (EliteTorrent.net).mkv n/a 2.9 GB
297 Sofi Goldfinger AT 720.mp4 n/a 1.5 GB
298 fabsluts.com-3528.mp4 n/a 2.2 GB
299 osajdenaya_krepost_3D_[tfile.ru].mkv n/a 10.1 GB
300 In.the.Heart.of.the.Sea.2015.3D.1080p.BluRay.x264-PSYCHD n/a 10.6 GB
301 xvsr-054 -护士的性别按钮突然响了 n/a 1.5 GB
302 The.Vampire.Diaries.S07E18.WEB-DL.x264-RARBG n/a 283.2 MB
303 [email protected]@DIGI-192 n/a 1.5 GB
304 Air Supply-Greatest Hits[Arista][MP3]{CtShoN}[C.T.R.C] n/a 91.7 MB
305 The Village, Achiara's Secret.E01.151007.HDTV.x264.720p.Hel.mp4 n/a 1.3 GB
306 King Arthur – Right Now (Sam Feldt Edit).mp3 n/a 8.0 MB
307 Kat Martin-Against the Law n/a 255.5 MB
308 Vagina Worship - HOS.flv n/a 99.1 MB
309 (成年コミック) [九神杏仁] 淫虐セメタリー [DL版].zip n/a 263.9 MB
310 Lisey Sweet - Star Fucker (03.02.2017)_720p.mp4 n/a 633.1 MB
311 Emma Brown - Take a Load Off.mp4 n/a 385.4 MB
312 TwistysHard - Mila Jade (Spread My Legs Wide) XXX NEW 25.June.2016 n/a 257.7 MB
313 Tori Black strips and masturbates in stockings n/a 149.2 MB
314 codecanyon-6318393-fancy-product-designer-woocommerce-plugin-220.zip n/a 1.2 MB
315 반드레드! (1기~2기) + OVA n/a 10.9 GB
316 (美女直播大秀 uun22.com)21 某學校在校學生,比較蘿莉可愛身材不錯胸至少有B各種爆菊肛交沒任何反應,各種高難度姿勢啪啪 n/a 292.0 MB
317 Janet King - Temporada 3 [HDTV][Cap.301].avi n/a 680.8 MB
318 www.youiv.pw 原创 OME-247 寺田安裕香 これが彼女のあゆむ道 独家HD n/a 2.3 GB
319 Modern.Family.S07E15.720p.HDTV.x264-AVS[eztv].mkv n/a 626.8 MB
320 ABP-290.HD n/a 4.4 GB
321 A Day With Mia Malkova Scene (3) Mylove .mp4 n/a 331.0 MB
322 Whitesnake-Love Hunter_1979-MP3[2015Burly.] n/a 86.0 MB
323 Inspector Gadget (2015) S01E06 Sucks like MAD & A Claw for Talon.mp4 n/a 312.7 MB
324 13 n/a 8.0 MB
325 Deadliest.Catch.The.Bait.S03E06.A.Stocking.Full.Of.Crab.1080p.WEB-DL.AAC2.0.H.264-NTb[rarbg] n/a 1.6 GB
326 WakeUpNFuck - Vika Volkova - WUNF 152 NEW (Apr 02, 2015) NEW.mp4 n/a 374.2 MB
327 Проверялочка. Разбор слова по составу, 2-4 классы.pdf n/a 7.3 MB
328 Brema.strastei.chelovecheskix.1934.DVDRip.Kinoradiomagia.avi n/a 1.5 GB
329 В О В С Е Т Я Ж К И Е n/a 36.3 GB
330 Utada Hikaru - For You:タイム・リミット (Single) n/a 49.7 MB
331 3 The Sirian Experiments n/a 352.2 MB
332 Gorecki (Kronos Quartet) n/a 120.7 MB
333 odin_iz_tisjachi_[tfile.ru] n/a 2.2 GB
334 Secrets.And.Lies.S01E02.720p.HDTV.x264-CBFM[brassetv] n/a 899.1 MB
335 Charles De Lint - Spirits In The Wires n/a 377.6 MB
336 Microsoft Train Simulator Ultimate Megapack n/a 26.5 GB
337 [Coat] Number Athletic Body Collectors Edition n/a 839.0 MB
338 HDD LLF Low Level Format Tool v4.25Final Version n/a 2.5 MB
339 Bayki.Mityaya.(15.seriya.iz.20).2012.XviD.SATRip.ANDROZZZ.avi n/a 366.1 MB
340 Brian Tracy - The Luck Factor n/a 389.6 MB
341 danni.com - 2009.10 n/a 1.1 GB
342 Stunning18.14.09.28.Isabele.N.Water.Lily.XXX.1080p.MP4.OHRLY n/a 386.7 MB
343 Prisioneros.BR-Screener.XviD.[DTL].avi n/a 2.3 GB
344 Aida.11x30.HDTV.XviD.[www.DivxTotaL.com].avi n/a 414.8 MB
345 Demonu_vojnu_[tfile.ru] n/a 1.6 GB
346 Adobe Creative Cloud Cleaner Tool.zip n/a 5.9 MB
347 Nikopol n/a 5.8 GB
348 Rutherford W. - Whys & Therefores. A Rational Look at the English Language - 2011.pdf n/a 4.3 MB
349 MotoCalc Workbench 8.08 n/a 5.2 MB
350 Skagos - 2009 - Litha MMIX (EP) n/a 176.0 MB
351 Logical Elements - 2017 - The Echo (Melusine Records, 2017)(HD 24-44) n/a 693.4 MB
352 Estival Jazz Lugano 2009 - Hugh Masekela.ts n/a 8.5 GB
353 Various Artists - Max Mix 2013 (Mixed By Toni Peret) (2CD)-2013 n/a 348.9 MB
354 Steely Dan - Collected - 2009 n/a 1.4 GB
355 Campbell B., Iyer S., Akbal-Delibas B. - Introduction to Compiler Construction in a Java World - 2013.pdf n/a 5.4 MB
356 Kelly Favor. Club Alpha (1-2) n/a 515.1 KB
357 800+ Science Fiction and Fantasy Books n/a 617.0 MB
358 Bethoven.2.DVDRip.2xMVO(STS,NTV).by.waren.aka.usoi.[rutracker.org].avi n/a 1.8 GB
359 [ www.Speed.cd ] -One.Piece.E248.720p.WEBRip.x264-ANiHLS n/a 342.7 MB
360 Blade.of.Darkness - RELOADED n/a 2.6 GB
361 HOC-079C n/a 1.6 GB
362 Deluxe - The Deluxe Family Show [320 Kbps] n/a 112.3 MB
363 Sandee.Westgate.Black.bed.bigtits.stockings.garters.titfuck.milf.homemade.amateur.playboy.fitgirl.bubblebutt.couple.mp4 n/a 155.5 MB
364 Nubiles.20.02.26.Light.Fairy.Bubble.Bath.XXX.720p.WEB.x264-GalaXXXy[XvX] n/a 150.4 MB